Tracking 29892 objects as of 21-Nov-2024
HD Live streaming from Space Station
objects crossing your sky now

ARIANE 2 DEB

Track ARIANE 2 DEB now!


NORAD ID: 27594
Int'l Code: 1988-040D
Perigee: 425.3 km
Apogee: 34,607.0 km
Inclination: 7.2 °
Period: 612.4 minutes
Semi major axis: 23887 km
RCS: 1.4943 m2 (large)
Launch date: May 17, 1988
Source: France (FR)
Launch site: FRENCH GUIANA (FRGUI)

Note: This is SATELLITE DEBRIS
Your satellite tracking list
Your tracking list is empty




NASA's NSSDC Master Catalog

Two Line Element Set (TLE):
1 27594U 88040D   24325.38991459  .00005913  00000-0  17430-1 0  9995
2 27594   7.1545 164.1198 7154840 109.7872 335.5167  2.35156627188075
Source of the keplerian elements: AFSPC